Regional Weather Roundup
Issued by NWS Portland, ME

Home | Current Version | Previous Version | Text Only | Print | Product List | Glossary On
Versions: 1 2 3 4 5 6 7 8 9 10 11 12 13 14 15 16 17 18 19 20 21 22 23 24 25 26 27 28 29 30 31 32 33 34 35 36 37 38 39 40 41 42 43 44
000
ASUS41 KGYX 211905
RWRGYX
WEATHER ROUNDUP FOR MAINE AND NEW HAMPSHIRE
NATIONAL WEATHER SERVICE GRAY ME
300 PM EDT THU AUG 21 2014

MEZ002-005-006-010-012-015-018-020-021-024-026-027-029-212000-
MAINE

CITY           SKY/WX    TMP DP  RH WIND       PRES   REMARKS
PORTLAND       CLOUDY    71  57  61 CALM      30.10F
SANFORD        CLOUDY    70  54  56 S3        30.11F
BAR HARBOR     PTSUNNY   70  61  73 E8        30.10S
WISCASSET      LGT RAIN  68  64  87 CALM      30.11S
ROCKLAND       CLOUDY    66  61  82 E3        30.09F
FRYEBURG       CLOUDY    65  60  84 CALM      30.12F
LEWISTONAUBURN CLOUDY    72  61  68 S7        30.11S
AUGUSTA        CLOUDY    73  60  63 S6        30.10S
WATERVILLE     CLOUDY    75  64  69 S6        30.04F
BANGOR         CLOUDY    78  61  55 E7        30.08F
GREENVILLE       N/A     72  61  68 SE8       30.11S
MILLINOCKET    CLOUDY    75  61  61 E7        30.12S
HOULTON        CLOUDY    72  59  63 SE3       30.12R
PRESQUE ISLE   PTSUNNY   73  55  53 N7        30.12S
FRENCHVILLE    PTSUNNY   70  54  56 CALM      30.14F
CARIBOU        PTSUNNY   75  55  49 E6        30.12F
$$

NHZ002-005-008-009-011-012-014-212000-
NEW HAMPSHIRE

CITY           SKY/WX    TMP DP  RH WIND       PRES   REMARKS
PORTSMOUTH     CLOUDY    69  57  66 NE5       30.08F
ROCHESTER      CLOUDY    70  56  61 VRB5      30.09F
NASHUA         CLOUDY    67  62  84 N6        30.09F
MANCHESTER     LGT RAIN  66  55  67 NE5       30.08F
CONCORD        CLOUDY    67  57  70 S5        30.09F
LACONIA        CLOUDY    70  59  68 NE6       30.09F
PLYMOUTH       PTSUNNY   69  62  77 E5        30.09F
BERLIN         CLOUDY    74  58  57 S8        30.10S
WHITEFIELD     CLOUDY    71  54  54 VRB7G16   30.09S
JAFFREY        CLOUDY    61  58  90 CALM      30.12F
LEBANON        CLOUDY    67  57  70 CALM      30.09F
MT WASHINGTON  LGT RAIN  46  43  87 SE9         N/A
$$

VTZ005-007-008-212000-
VERMONT

CITY           SKY/WX    TMP DP  RH WIND       PRES   REMARKS
ST JOHNSBURY     N/A     68  56  65 MISG      30.07F
MONTPELIER     RAIN      57  55  93 S7        30.15F FOG
BURLINGTON     CLOUDY    72  60  66 E15       30.04S
$$

MAZ007-012-024-CTZ003-RIZ002-NYZ038-NYZ072-212000-
SOUTHERN NEW ENGLAND AND NY

CITY           SKY/WX    TMP DP  RH WIND       PRES   REMARKS
BOSTON         MOSUNNY   71  64  78 E12       30.07F
WORCESTER      LGT RAIN  70  57  63 NE3       30.09F
NANTUCKET      PTSUNNY   72  63  73 NE13      30.05F
PROVIDENCE     PTSUNNY   78  61  55 SE5       30.05F
HARTFORD       CLOUDY    78  62  57 NE7       30.03F
ALBANY         CLOUDY    76  64  66 S8        30.00F
NEW YORK CITY  PTSUNNY   80  59  48 S13       30.03F
$$

ANZ081-ANZ082-ANZ150-NHZ014-MEZ023>029-212000-
COASTAL MARINE OBSERVATIONS

STATION/POSITION TIME  TEMP    WIND        PRES    WAVE
                       AIR SEA DIR/SP/G            HT/PER
                 (UTC) (F)     (DEG/KT/KT) (MB)    (FT/S)
MATINICUS ROCK   1800           50/ 11/ 12 1018.6F
PORTLAND WX BUOY 1850   65 64  250/  2/  2 1019.2F   1/ 7
WELLS            1800   69 62  170/  2/  3 1018.6F
ISLE OF SHOALS   1800   65      CALM  /  1 1018.9F
JEFFREYS LEDGE   1821      68                N/A     2/ 7
CASHES LEDGE BUO 1850   68 69              1018.6F   2/ 7
$$

.............KEY..............
   WCI - WIND CHILL
   TC  - TEMPERATURE IN CELSIUS
   VSB - VISIBILITY IN MILES
   HX  - HEAT INDEX
   FAIR- INDICATES FEW OR NO CLOUDS BELOW 12,000 FT, WITH NO
         SIGNIFICANT WEATHER AND/OR OBSTRUCTIONS TO VISIBILITY.




USA.gov is the U.S. government's official web portal to all federal, state and local government web resources and services.